#�ϑ�����,���ϕ���,���ϕ���,�ő啗��,�ő啗����������,�ő�u�ԕ���,�ő�u�ԕ�����������
#(�N����),(m/s)   ,(16����),(m/s)   ,(16����)        ,(m/s)       ,(16����)            
2012/8/20 0:01,2.5,3,2.6,3,3.7,3
2012/8/20 0:02,2.5,3,2.5,3,3.6,3
2012/8/20 0:03,2.5,3,2.6,3,4.2,2
2012/8/20 0:04,2.6,3,2.6,3,3.3,3
2012/8/20 0:05,2.6,3,2.6,3,3.5,3
2012/8/20 0:06,2.4,3,2.6,3,3.6,3
2012/8/20 0:07,2.4,3,2.4,3,3.8,4
2012/8/20 0:08,2.4,3,2.4,3,3.5,3
2012/8/20 0:09,2.4,3,2.4,3,2.9,4
2012/8/20 0:10,2.4,3,2.4,3,3.1,3
2012/8/20 0:11,2.4,3,2.4,3,3.3,3
2012/8/20 0:12,2.4,3,2.4,3,3.9,3
2012/8/20 0:13,2.3,3,2.4,3,3.2,4
2012/8/20 0:14,2.4,3,2.4,3,4.3,3
2012/8/20 0:15,2.4,3,2.5,3,4.8,3
2012/8/20 0:16,2.5,3,2.5,3,3,3
2012/8/20 0:17,2.4,3,2.5,3,5,3
2012/8/20 1:00,1.8,3,1.8,3,2,3
2012/8/20 1:01,1.5,2,1.8,3,2,3
2012/8/20 1:02,1.9,3,1.9,3,3.1,3
2012/8/20 1:03,2.1,3,2.1,3,3.3,3
2012/8/20 1:04,2.1,3,2.1,3,3.6,3
2012/8/20 1:05,2.3,3,2.3,3,3.9,3
2012/8/20 1:06,2.3,3,2.3,3,3.3,3
2012/8/20 1:07,2.3,3,2.3,3,3.8,3
2012/8/20 1:08,2.3,3,2.3,3,3.9,4
2012/8/20 1:09,2.5,3,2.5,3,4.3,3
2012/8/20 1:10,2.5,3,2.5,3,3.9,3
2012/8/20 1:11,2.5,3,2.5,3,3.8,3
2012/8/20 1:12,2.5,3,2.5,3,3.3,3
2012/8/20 1:13,2.5,3,2.5,3,2.9,4
2012/8/20 1:14,2.5,3,2.5,3,2.4,2
2012/8/20 1:15,2.4,3,2.5,3,3.2,2
2012/8/20 1:16,2.5,3,2.5,3,3.5,3
2012/8/20 1:17,2.5,3,2.5,3,3.8,2
2012/8/20 1:18,2.6,3,2.6,3,4.7,3
2012/8/20 1:19,2.6,3,2.6,3,4.3,4
2012/8/20 1:20,2.6,3,2.6,3,4.2,3
2012/8/20 1:21,2.6,3,2.6,3,3.7,4
2012/8/20 1:22,2.8,3,2.8,3,4.4,3
2012/8/20 1:23,2.9,3,2.9,3,3.9,3
2012/8/20 1:24,3.1,3,3.1,3,5.4,4
2012/8/20 1:25,3.2,3,3.2,3,5.8,3
2012/8/20 1:26,3.3,3,3.3,3,5.1,3
2012/8/20 1:27,3.3,3,3.3,3,3.8,3
2012/8/20 1:28,3.2,3,3.3,3,4.2,3
2012/8/20 1:29,3.2,3,3.2,3,5.4,2
2012/8/20 1:30,3.2,3,3.2,3,5.1,2
2012/8/20 1:31,3.2,3,3.2,3,3.9,2
2012/8/20 1:32,3.1,3,3.2,3,3.2,3
2012/8/20 1:33,3.2,3,3.2,3,5.5,3
2012/8/20 1:34,3.2,3,3.2,3,4.7,4
2012/8/20 1:35,3.1,3,3.2,3,4.8,3
2012/8/20 1:36,3,3,3.1,3,5.2,3
2012/8/20 1:37,3,3,3,3,4.4,3
2012/8/20 1:38,3.1,3,3.1,3,5,3
2012/8/20 1:39,3.1,3,3.2,3,4.7,2
2012/8/20 1:40,3.1,3,3.1,3,4.7,3
2012/8/20 1:41,3.1,3,3.1,3,4.8,2
2012/8/20 1:42,3.2,3,3.2,3,4.5,3
2012/8/20 1:43,3.2,3,3.3,3,4.9,3
2012/8/20 1:44,3.1,3,3.2,3,4.1,2
2012/8/20 1:45,3.1,3,3.1,3,5.4,3
2012/8/20 1:46,3.2,3,3.2,3,5.1,2
2012/8/20 1:47,3.2,3,3.2,3,5.2,2
2012/8/20 1:48,3.2,3,3.2,3,5.2,3
2012/8/20 1:49,3.2,3,3.2,3,4.2,3
2012/8/20 1:50,3.1,3,3.2,3,3.2,3
2012/8/20 1:51,3.1,3,3.1,3,4.9,2
2012/8/20 1:52,3,3,3.1,3,3.7,3
2012/8/20 1:53,2.9,3,3.1,3,3.9,3
2012/8/20 1:54,3,2,3,3,4.4,3
2012/8/20 1:55,3,2,3,3,4.4,3
2012/8/20 1:56,2.9,2,3,3,4.2,3
2012/8/20 1:57,2.9,2,2.9,3,3.2,3
2012/8/20 1:58,2.7,2,2.8,3,3.2,2
2012/8/20 1:59,2.7,3,2.7,3,4.5,3
2012/8/20 2:00,2.7,3,2.7,2,4.4,3
2012/8/20 2:01,2.6,3,2.7,3,4.2,3
2012/8/20 2:02,2.7,3,2.7,3,4.1,3
2012/8/20 2:03,2.7,3,2.7,3,3.3,3
2012/8/20 2:04,2.8,3,2.8,2,5.2,3
2012/8/20 2:05,2.8,3,2.8,2,4.1,3
2012/8/20 2:06,2.9,3,2.9,2,4.3,3
2012/8/20 2:07,3,3,3,3,4.4,3
2012/8/20 2:08,3.1,3,3.1,3,4.4,3
2012/8/20 2:09,3.1,3,3.2,3,4.4,2
2012/8/20 2:10,3.1,3,3.2,3,5.2,3
2012/8/20 2:11,3.2,3,3.2,3,5.5,3
2012/8/20 2:12,3.2,3,3.3,3,4.7,3
2012/8/20 2:13,3.1,3,3.2,3,3.9,3
2012/8/20 2:14,3,3,3.1,3,3.8,3
2012/8/20 2:15,3,3,3,3,4.1,3
2012/8/20 2:16,3,3,3,3,3.8,2
2012/8/20 2:17,2.9,3,3,3,3.9,2
2012/8/20 2:18,2.8,3,2.9,3,3.8,3
2012/8/20 2:19,2.8,3,2.8,3,4.3,3
2012/8/20 2:20,2.7,3,2.8,3,3.5,3
2012/8/20 2:21,2.6,3,2.7,3,3.2,3
2012/8/20 2:22,2.6,3,2.6,3,3.9,3
2012/8/20 2:23,2.6,3,2.6,3,2.9,2
2012/8/20 2:24,2.5,3,2.6,3,3.3,4
2012/8/20 2:25,2.4,3,2.5,3,2.7,3
2012/8/20 2:26,2.4,3,2.4,3,3.5,4
2012/8/20 3:48,2,2,2,2,2.4,2
2012/8/20 3:49,1.8,2,2,2,2.4,2
2012/8/20 3:50,1.7,2,1.9,2,2.6,2
2012/8/20 3:51,1.9,3,1.9,2,2.6,3
2012/8/20 3:52,1.8,3,1.9,2,2.4,3
2012/8/20 3:53,1.8,3,1.8,2,2.6,3
2012/8/20 3:54,1.8,3,1.8,2,2.5,3
2012/8/20 3:55,1.8,3,1.8,2,2.9,4
2012/8/20 3:56,1.9,3,1.9,2,3.5,3
2012/8/20 3:57,1.9,3,1.9,2,3,4
2012/8/20 3:58,2,3,2,2,3.5,4
2012/8/20 3:59,2.1,3,2.1,3,4.2,3
2012/8/20 4:00,2.2,3,2.2,3,4.1,4
2012/8/20 4:01,2.2,3,2.2,3,3.7,3
2012/8/20 4:02,2.3,3,2.3,3,3.9,3
2012/8/20 4:03,2.3,3,2.3,3,3.3,3
2012/8/20 4:04,2.4,3,2.4,3,3.5,4
2012/8/20 4:05,2.4,3,2.5,3,2.5,3
2012/8/20 4:06,2.4,3,2.4,3,3.1,4
2012/8/20 4:07,2.4,3,2.4,3,3.7,3
2012/8/20 4:08,2.4,3,2.4,3,3.1,4
2012/8/20 4:09,2.3,3,2.4,3,2.7,3
2012/8/20 4:10,2.3,3,2.3,3,2.6,3
2012/8/20 4:11,2.3,3,2.3,3,2.6,4
2012/8/20 4:12,2.1,3,2.3,3,2.6,3
2012/8/20 4:13,2.1,3,2.1,3,3.1,3
2012/8/20 4:14,1.9,3,2.1,3,2,3
2012/8/20 4:15,1.9,3,1.9,3,1.8,2
2012/8/20 4:16,1.8,3,1.9,3,2.6,3
2012/8/20 4:17,1.8,3,1.8,3,3.1,3
2012/8/20 4:18,1.7,3,1.8,3,3,3
2012/8/20 4:19,1.8,3,1.8,3,2.6,3
2012/8/20 4:20,1.8,3,1.8,3,3.8,3
2012/8/20 4:21,1.8,3,1.8,3,2.6,4
2012/8/20 4:22,1.9,3,1.9,3,3.2,4
2012/8/20 4:23,2,3,2,3,3,4
2012/8/20 4:24,2,3,2,3,2.4,4
2012/8/20 4:25,2,3,2,3,2.6,3
2012/8/20 4:26,2,3,2,3,2.5,3
2012/8/20 4:27,2,3,2,3,2.7,3
2012/8/20 4:28,1.9,3,2,3,2.5,3
2012/8/20 4:29,1.9,3,1.9,3,2.5,3
2012/8/20 4:30,1.9,3,1.9,3,2.7,3
2012/8/20 4:31,1.9,3,1.9,3,2.7,3
2012/8/20 4:32,1.8,3,1.8,3,2.2,3
2012/8/20 4:33,1.7,3,1.8,3,2.4,3
2012/8/20 4:34,1.7,3,1.7,3,2.7,4
2012/8/20 4:35,1.7,3,1.7,3,3,3
2012/8/20 4:36,1.8,3,1.8,3,3,3
2012/8/20 4:37,1.7,2,1.8,3,2.6,4
2012/8/20 4:38,1.8,3,1.8,3,3.2,2
2012/8/20 4:39,1.8,3,1.8,3,3.6,3
2012/8/20 4:40,1.8,2,1.8,3,2.7,3
2012/8/20 4:41,1.8,2,1.8,3,3.5,2
2012/8/20 4:42,1.9,2,1.9,2,3.3,3
2012/8/20 4:43,2,2,2,2,3.5,2
2012/8/20 4:44,2,2,2.1,2,2.9,2
2012/8/20 4:45,2.1,2,2.1,2,2.7,3
2012/8/20 4:46,2.1,3,2.1,2,3.7,3
2012/8/20 4:47,2.1,3,2.2,3,3,4
2012/8/20 4:48,2,2,2.1,3,2,2
2012/8/20 4:49,2,2,2.1,3,3.1,3
2012/8/20 4:50,2,2,2,3,2.1,3
2012/8/20 4:51,2,2,2,3,2.6,3
2012/8/20 4:52,1.9,2,2,3,2.7,3
2012/8/20 4:53,1.8,2,1.9,3,2.2,4
2012/8/20 4:54,1.9,2,1.9,3,3.2,2
2012/8/20 4:55,1.9,2,1.9,3,3.3,2
2012/8/20 4:56,1.8,2,1.9,3,2.5,4
2012/8/20 4:57,1.7,2,1.8,3,2.1,2
2012/8/20 4:58,1.8,2,1.8,2,2.4,3
2012/8/20 4:59,1.7,2,1.8,2,2.7,2
2012/8/20 5:00,1.8,2,1.8,2,2.6,2
2012/8/20 5:01,1.7,2,1.8,2,2.2,2
2012/8/20 5:02,1.6,2,1.7,3,1.9,2
2012/8/20 5:03,1.7,2,1.7,2,2.9,3
2012/8/20 5:04,1.7,2,1.7,2,3.7,3
2012/8/20 5:05,1.7,2,1.8,2,3.2,3
2012/8/20 5:06,1.7,2,1.7,2,2.9,2
2012/8/20 5:07,1.7,2,1.7,2,3.8,2
2012/8/20 5:08,1.8,2,1.8,2,3.3,3
2012/8/20 5:09,1.8,2,1.8,2,3.1,2
2012/8/20 5:10,1.8,2,1.8,2,3.9,2
2012/8/20 5:11,1.9,2,1.9,2,3.2,2
2012/8/20 5:12,2.1,2,2.1,2,3.8,3
2012/8/20 5:13,2.1,2,2.1,2,3.5,2
2012/8/20 5:14,2.1,2,2.1,2,3.6,3
2012/8/20 5:15,2.1,3,2.2,3,3.1,3
2012/8/20 5:16,2.2,2,2.2,3,3.9,3
2012/8/20 5:17,2.3,2,2.3,2,3.8,4
2012/8/20 5:18,2.2,2,2.3,2,2.9,3
2012/8/20 5:19,2.3,2,2.3,2,3.6,2
2012/8/20 5:20,2.2,3,2.3,2,3,2
2012/8/20 5:21,2.2,3,2.2,2,3.2,3
2012/8/20 5:22,2.1,3,2.2,2,2.9,3
2012/8/20 5:23,2.2,3,2.2,2,3.1,3
2012/8/20 5:24,2.2,2,2.2,2,3.7,3
2012/8/20 5:25,2.3,3,2.3,2,4.2,3
2012/8/20 5:26,2.2,2,2.3,2,3.8,3
2012/8/20 5:27,2.1,2,2.2,2,2.9,2
2012/8/20 5:28,2.2,2,2.2,2,4.2,3
2012/8/20 5:29,2.1,2,2.2,2,4.2,2
2012/8/20 5:30,2.3,2,2.3,3,4.2,3
2012/8/20 5:31,2.4,2,2.4,2,4.4,4
2012/8/20 5:32,2.4,2,2.4,2,3.5,3
2012/8/20 5:33,2.4,2,2.4,2,2.9,2
2012/8/20 5:34,2.3,2,2.4,2,4.3,4
2012/8/20 5:35,2.2,2,2.3,2,3.7,3
2012/8/20 5:36,2.2,2,2.2,2,4.2,2
2012/8/20 5:37,2.3,2,2.3,2,3.3,3
2012/8/20 5:38,2.3,2,2.4,2,3.6,2
2012/8/20 5:39,2.4,2,2.4,2,4.3,4
2012/8/20 5:40,2.4,3,2.5,2,3.1,3
2012/8/20 5:41,2.4,2,2.4,2,3.2,2
2012/8/20 5:42,2.4,3,2.4,2,2.9,3
2012/8/20 5:43,2.5,3,2.5,2,3.9,2
2012/8/20 5:44,2.5,3,2.5,2,3.1,3
2012/8/20 5:45,2.4,3,2.5,2,2.6,3
2012/8/20 5:46,2.4,3,2.4,2,3,2
2012/8/20 5:47,2.3,3,2.4,2,2.5,2
2012/8/20 5:48,2.3,3,2.3,2,2.4,3
2012/8/20 5:49,2.1,3,2.2,2,2.4,4
2012/8/20 5:50,2.1,3,2.1,3,2.6,3
2012/8/20 7:00,1.9,4,1.9,4,2.1,4
2012/8/20 7:01,1.5,4,1.9,4,2.1,4
2012/8/20 7:02,1.5,4,1.7,4,2.9,5
2012/8/20 7:03,1.6,4,1.6,4,2.6,4
2012/8/20 7:04,1.6,4,1.7,4,2.9,4
2012/8/20 7:05,1.5,4,1.6,4,2.1,3
2012/8/20 7:06,1.5,4,1.5,4,2.2,3
2012/8/20 7:07,1.5,4,1.5,4,2.7,3
2012/8/20 7:08,1.5,4,1.5,4,2.4,2
2012/8/20 7:09,1.5,4,1.5,4,1.8,3
2012/8/20 7:10,1.5,3,1.5,4,2.2,2
2012/8/20 7:11,1.6,3,1.6,4,3.1,2
2012/8/20 7:12,1.7,3,1.7,4,4.1,3
2012/8/20 7:13,1.7,3,1.7,4,3,6
2012/8/20 7:14,1.7,3,1.7,3,2.2,3
2012/8/20 7:15,1.8,3,1.8,3,3.6,4
2012/8/20 7:16,1.9,4,1.9,4,2.9,5
2012/8/20 7:17,2,4,2,4,4.7,6
2012/8/20 7:18,2.1,4,2.1,4,3.8,6
2012/8/20 7:19,2.1,4,2.1,4,2,5
2012/8/20 7:20,2.1,5,2.1,4,3.2,4
2012/8/20 7:21,2.1,5,2.2,5,3.8,3
2012/8/20 7:22,2.1,5,2.1,5,3.8,4
2012/8/20 7:23,2.1,5,2.1,5,3.5,6
2012/8/20 7:24,2.1,5,2.2,5,3.3,6
2012/8/20 7:25,2.2,5,2.2,5,3.9,4
2012/8/20 7:26,2.2,5,2.2,5,3.5,3
2012/8/20 7:27,2.2,4,2.2,5,3.6,3
2012/8/20 7:28,2,4,2.2,5,2.5,3
2012/8/20 7:29,2.1,4,2.1,5,2.2,6
2012/8/20 7:30,2.1,4,2.1,5,3.6,6
2012/8/20 7:31,2.1,4,2.1,5,3.3,5
2012/8/20 7:32,2.1,4,2.1,5,3.7,5
2012/8/20 7:33,2,4,2.1,5,1.6,5
2012/8/20 7:34,1.9,5,1.9,5,1.9,6
2012/8/20 7:35,1.9,5,1.9,5,2.4,3
2012/8/20 7:36,1.8,5,1.9,5,2.7,3
2012/8/20 7:37,1.8,5,1.8,4,3.9,6
2012/8/20 7:38,1.8,5,1.8,4,3.3,5
2012/8/20 7:39,1.9,5,1.9,4,3.2,5
2012/8/20 7:40,2,5,2,4,4.2,6
2012/8/20 7:41,2,5,2,4,3.6,6
2012/8/20 7:42,1.9,5,2,4,2.4,6
2012/8/20 7:43,1.9,5,1.9,5,2.1,6
2012/8/20 7:44,2,5,2,5,3.6,3
2012/8/20 7:45,2,5,2.1,5,3.2,4
2012/8/20 7:46,2,5,2,5,2.1,4
2012/8/20 7:47,2,5,2.1,5,2.5,5
2012/8/20 7:48,1.9,5,2,5,2.9,4
2012/8/20 7:49,1.9,5,1.9,5,2.5,5
2012/8/20 7:50,1.8,5,1.9,5,2.5,5
2012/8/20 7:51,1.7,5,1.8,5,2.6,5
2012/8/20 7:52,1.8,5,1.8,5,3.5,5
2012/8/20 7:53,1.8,5,1.9,5,2.4,6
2012/8/20 7:54,1.7,5,1.8,5,1.6,6
2012/8/20 7:55,1.6,5,1.7,5,1.3,6
2012/8/20 7:56,1.6,5,1.6,5,2.2,5
2012/8/20 7:57,1.6,5,1.6,5,3.1,5
2012/8/20 7:58,1.6,5,1.6,5,2.7,5
2012/8/20 7:59,1.5,6,1.6,5,2.9,7
2012/8/20 8:00,1.5,6,1.5,5,2.6,5
2012/8/20 8:01,1.5,6,1.5,5,3.3,6
2012/8/20 8:02,1.4,6,1.5,5,2.6,7
2012/8/20 8:03,1.5,6,1.5,5,2.9,8
2012/8/20 8:04,1.5,6,1.5,5,1.8,8
2012/8/20 8:05,1.5,6,1.5,5,2.5,5
2012/8/20 8:06,1.5,6,1.6,5,2.4,6
2012/8/20 8:07,1.5,6,1.6,5,2.5,4
2012/8/20 8:08,1.5,6,1.5,5,2.4,6
2012/8/20 8:09,1.5,6,1.6,6,3.2,5
2012/8/20 8:10,1.6,6,1.6,6,3.1,6
2012/8/20 8:11,1.6,6,1.6,6,2.9,6
2012/8/20 8:12,1.6,6,1.6,6,2.1,6
2012/8/20 8:13,1.5,6,1.6,6,2.4,6
2012/8/20 8:14,1.6,6,1.6,6,1.6,7
2012/8/20 8:15,1.7,6,1.7,6,3,6
2012/8/20 8:16,1.6,6,1.7,6,2.9,8
2012/8/20 8:17,1.5,6,1.6,6,2.1,7
2012/8/20 8:18,1.5,6,1.6,6,2.5,8
2012/8/20 8:19,1.5,6,1.5,6,2.7,6
2012/8/20 8:20,1.3,6,1.5,6,2,5
2012/8/20 8:21,1.4,7,1.4,6,3.5,9
2012/8/20 8:22,1.4,7,1.4,6,2.9,7
2012/8/20 8:23,1.5,7,1.5,6,3.3,5
2012/8/20 8:24,1.5,7,1.5,6,2.5,5
2012/8/20 8:25,1.6,7,1.6,6,4.2,6
2012/8/20 8:26,1.6,6,1.7,6,3.5,6
2012/8/20 8:27,1.7,6,1.7,6,2.5,4
2012/8/20 8:28,1.9,6,1.9,6,3.8,5
2012/8/20 8:29,1.9,6,1.9,6,2.7,5
2012/8/20 8:30,2,6,2,6,2.7,6
2012/8/20 8:31,2,6,2,6,3,6
2012/8/20 8:32,1.9,6,2,6,3.9,4
2012/8/20 8:33,2,6,2,6,4.4,5
2012/8/20 8:34,2,5,2,6,3.2,4
2012/8/20 8:35,1.9,5,2.1,5,3.1,3
2012/8/20 8:36,1.8,5,1.8,5,2.2,4
2012/8/20 8:37,1.9,5,1.9,5,3.1,4
2012/8/20 8:38,1.9,5,2,5,3.8,4
2012/8/20 8:39,2,4,2,5,3.5,5
2012/8/20 8:40,2.1,4,2.1,5,3.7,5
2012/8/20 8:41,2.2,4,2.2,4,4.5,3
2012/8/20 8:42,2.2,4,2.3,4,3.9,2
2012/8/20 10:23,0.8,10,0.8,10,0.9,8
2012/8/20 10:24,0.6,7,0.8,10,0.9,8
2012/8/20 10:25,2,8,2,8,4.7,8
2012/8/20 10:26,2.2,7,2.2,8,3.9,8
2012/8/20 10:27,1.9,8,2.1,8,3.6,8
2012/8/20 10:28,1.9,8,2,8,3.7,9
2012/8/20 10:29,1.7,8,1.8,8,2.4,6
2012/8/20 10:30,1.8,8,1.8,8,3,8
2012/8/20 10:31,1.8,8,1.8,8,3.7,9
2012/8/20 10:32,1.7,8,1.7,8,2,6
2012/8/20 10:33,1.7,8,1.7,8,2.6,8
2012/8/20 10:34,1.7,8,1.7,8,2.7,8
2012/8/20 10:35,1.6,8,1.7,8,1.9,8
2012/8/20 10:36,1.4,8,1.6,8,1.9,9
2012/8/20 10:37,1.4,8,1.5,8,2.9,10
2012/8/20 10:38,1.5,8,1.5,8,3.5,8
2012/8/20 10:39,1.4,8,1.5,8,2.2,10
2012/8/20 13:03,2.7,6,2.7,6,3.7,8
2012/8/20 13:04,3.3,7,3.6,6,4.3,7
2012/8/20 13:10,3.2,6,3.2,6,3.5,6
2012/8/20 13:11,3.1,6,3.2,6,4.1,6
2012/8/20 13:12,2.6,8,3,6,3.9,8
2012/8/20 13:13,2.5,8,2.7,6,3.8,9
2012/8/20 13:14,2.3,9,2.4,6,3.3,9
2012/8/20 13:15,2.7,8,2.7,6,5,8
2012/8/20 13:16,2.9,8,2.9,6,5.2,8
2012/8/20 13:17,3,8,3,6,5.7,8
2012/8/20 13:18,2.9,8,3,6,3.9,8
2012/8/20 13:19,2.8,8,2.8,6,3.8,8
2012/8/20 13:20,2.8,8,2.8,6,4.7,9
2012/8/20 13:21,2.6,8,2.8,7,3,11
2012/8/20 13:22,2.6,8,2.6,8,3.9,8
2012/8/20 13:23,2.5,8,2.6,8,4.9,8
2012/8/20 13:24,2.5,8,2.5,8,3.1,8
2012/8/20 13:25,2.4,8,2.5,8,6.7,5
2012/8/20 13:26,2.4,8,2.4,8,6,6
2012/8/20 13:27,2.2,7,2.3,8,3.8,6
2012/8/20 13:28,2.2,7,2.2,8,5.1,7
2012/8/20 13:29,2.3,7,2.3,8,4.8,6
2012/8/20 13:30,2.4,7,2.4,8,5.1,7
2012/8/20 13:31,2.5,7,2.5,8,3.7,8
2012/8/20 13:32,2.6,7,2.6,8,5.4,7
2012/8/20 13:33,2.7,7,2.7,7,5.6,8
2012/8/20 13:34,2.9,7,2.9,7,4.1,9
2012/8/20 13:35,3.1,7,3.1,7,7.4,8
2012/8/20 13:36,3,8,3.1,7,5.1,7
2012/8/20 13:37,3.1,8,3.1,7,5.6,9
2012/8/20 13:38,2.9,8,3,7,2.6,7
2012/8/20 13:39,2.8,8,3,7,4.9,7
2012/8/20 13:40,2.7,8,2.8,7,3.5,9
2012/8/20 13:41,2.6,8,2.6,7,3.7,9
2012/8/20 13:42,2.5,8,2.6,7,4.2,9
2012/8/20 13:43,2.3,8,2.5,7,2.5,7
2012/8/20 13:44,2.3,7,2.3,7,4.5,5
2012/8/20 13:45,2.1,7,2.3,8,4.3,6
2012/8/20 13:46,2.1,7,2.1,8,4.7,4
2012/8/20 13:47,2.1,6,2.1,8,3.9,5
2012/8/20 13:48,2.2,6,2.2,8,3.3,6
2012/8/20 13:49,2.4,6,2.4,8,6.8,8
2012/8/20 13:50,2.7,6,2.7,6,7.4,9
2012/8/20 13:51,2.8,7,2.9,7,5.7,8
2012/8/20 13:52,2.9,7,2.9,7,4.9,8
2012/8/20 13:53,3,7,3,7,4.9,8
2012/8/20 13:54,3,7,3,7,4.7,8
2012/8/20 13:55,2.9,8,3,7,4.7,9
2012/8/20 13:56,2.8,8,2.9,7,3,4
2012/8/20 13:57,2.8,8,2.8,7,4.7,5
2012/8/20 13:58,2.8,7,2.9,7,4.5,5
2012/8/20 13:59,2.7,7,2.8,7,5.7,6
2012/8/20 14:00,2.7,7,2.7,7,7.4,7
2012/8/20 14:01,2.7,7,2.7,7,6.3,7
2012/8/20 14:02,2.6,6,2.7,7,5.7,7
2012/8/20 14:03,2.6,6,2.7,7,2.9,6
2012/8/20 14:04,2.6,6,2.6,7,4.1,5
2012/8/20 14:05,2.6,6,2.7,8,3.3,5
2012/8/20 14:06,2.5,6,2.6,8,2.6,6
2012/8/20 14:07,2.3,6,2.5,8,2,6
2012/8/20 14:08,2.2,6,2.3,7,3.2,8
2012/8/20 14:09,2.3,7,2.3,7,4.7,9
2012/8/20 14:10,2.1,7,2.3,7,5.6,8
2012/8/20 14:11,2.1,7,2.1,7,5.5,7
2012/8/20 14:12,2.1,7,2.1,6,5.6,8
2012/8/20 14:13,2.1,7,2.2,6,4.3,8
2012/8/20 14:14,2.1,7,2.2,6,4.4,7
2012/8/20 14:15,2.3,7,2.3,6,4.4,7
2012/8/20 14:16,2.5,7,2.5,6,6.7,8
2012/8/20 14:17,2.8,7,2.8,7,6.5,9
2012/8/20 14:18,2.9,7,2.9,7,4.7,7
2012/8/20 14:19,2.9,7,2.9,7,4.8,8
2012/8/20 14:20,2.9,7,2.9,7,4.4,8
2012/8/20 14:21,2.8,7,2.8,7,4.8,9
2012/8/20 14:22,2.8,7,2.9,7,4.2,7
2012/8/20 14:23,2.8,7,2.8,7,3.6,8
2012/8/20 14:24,2.7,7,2.7,7,3.8,7
2012/8/20 14:25,2.6,7,2.7,7,3.1,6
2012/8/20 14:26,2.6,7,2.6,7,4.9,5
2012/8/20 14:27,2.4,7,2.5,7,3,5
2012/8/20 14:28,2.2,7,2.4,7,2.7,7
2012/8/20 14:29,2.1,7,2.2,7,3.2,7
2012/8/20 14:30,2,7,2.1,7,1.5,7
2012/8/20 14:31,1.9,6,2,7,3.2,5
2012/8/20 14:32,2.1,6,2.1,7,6.5,6
2012/8/20 14:33,2.3,6,2.3,7,4.9,5
2012/8/20 14:34,2.4,6,2.4,7,6.1,5
2012/8/20 14:35,2.7,6,2.7,6,5.6,5
2012/8/20 14:36,2.9,6,2.9,6,6.3,5
2012/8/20 14:37,3.1,6,3.1,6,6.1,6
2012/8/20 14:38,3.3,6,3.3,6,5.6,5
2012/8/20 14:39,3.4,6,3.4,6,3.7,5
2012/8/20 14:40,3.5,6,3.5,6,4.9,5
2012/8/20 14:41,3.7,6,3.7,6,5.7,6
2012/8/20 14:42,3.6,6,3.7,6,4.7,5
2012/8/20 14:43,3.6,6,3.6,6,4.3,5
2012/8/20 14:44,3.3,6,3.5,6,2.9,5
2012/8/20 14:45,3.3,6,3.3,6,6.5,6
2012/8/20 14:46,3.1,6,3.3,6,5.2,7
2012/8/20 14:47,3,6,3.1,6,5.2,7
2012/8/20 14:48,2.9,6,3,6,3.8,7
2012/8/20 14:49,3,6,3,6,5.4,6
2012/8/20 14:50,3,6,3,6,3.5,9
2012/8/20 14:51,3,7,3,6,5.8,8
2012/8/20 14:52,3.1,7,3.1,6,5.8,8
2012/8/20 14:53,3,7,3,6,4.3,7
2012/8/20 14:54,3.1,7,3.1,6,4.8,7
2012/8/20 14:55,3,7,3.1,6,3.8,8
2012/8/20 14:56,2.9,7,3,6,4.9,9
2012/8/20 14:57,2.9,8,2.9,7,4.9,7
2012/8/20 14:58,2.9,7,2.9,7,4.1,7
2012/8/20 14:59,2.7,7,2.9,7,3.3,5
2012/8/20 15:00,2.7,7,2.7,7,4.7,7
2012/8/20 15:01,2.6,7,2.7,7,5.5,7
2012/8/20 15:02,2.5,7,2.6,7,4.9,7
2012/8/20 15:03,2.7,7,2.7,7,5.2,7
2012/8/20 15:04,2.6,7,2.7,7,3.9,7
2012/8/20 15:05,2.6,7,2.6,7,3.6,7
2012/8/20 15:06,2.6,7,2.6,7,3.6,6
2012/8/20 15:07,2.6,7,2.6,8,3.9,8
2012/8/20 15:08,2.5,7,2.5,7,5.7,6
2012/8/20 15:09,2.9,7,2.9,7,6.8,7
2012/8/20 15:10,3.1,7,3.1,7,6.5,7
2012/8/20 15:11,3.1,7,3.2,7,4.4,7
2012/8/20 15:12,3,7,3.1,7,3.8,5
2012/8/20 15:13,3,7,3,7,4.5,6
2012/8/20 15:14,3.1,6,3.1,7,5.5,5
2012/8/20 15:15,3.1,6,3.1,7,3.9,6
2012/8/20 15:16,3.2,6,3.2,7,4.9,4
2012/8/20 15:17,3.3,6,3.3,6,6.4,6
2012/8/20 15:18,3.3,6,3.4,6,5,8
2012/8/20 15:19,3.2,6,3.3,6,4.5,7
2012/8/20 15:20,3.1,6,3.2,6,5.4,7
2012/8/20 15:21,3.1,6,3.1,6,5.2,7
2012/8/20 15:22,3.2,6,3.2,6,4.5,8
2012/8/20 15:23,3.1,7,3.2,6,3.9,5
2012/8/20 15:24,2.9,7,3.1,6,2.7,8
2012/8/20 15:25,2.8,7,2.8,6,3.3,9
2012/8/20 15:26,2.6,8,2.8,6,3,9
2012/8/20 15:27,2.3,8,2.6,6,2.5,10
2012/8/20 15:28,2.3,8,2.3,6,6.2,5
2012/8/20 15:29,2.4,7,2.4,6,5.1,6
2012/8/20 15:30,2.3,7,2.4,6,3.5,6
2012/8/20 15:31,2.4,7,2.4,6,5,6
2012/8/20 23:14,1.8,2,1.8,2,2.2,2
2012/8/20 23:15,2.4,2,2.4,2,4.5,1
2012/8/20 23:16,1.8,3,2.4,2,3.9,16
2012/8/20 23:17,2,2,2,2,4.3,2
2012/8/20 23:18,2.3,2,2.3,2,4.4,2
2012/8/20 23:19,2.2,2,2.3,2,3,3
2012/8/20 23:20,2.2,2,2.2,2,3.5,3
2012/8/20 23:21,2.3,2,2.3,2,4.9,2
2012/8/20 23:22,2.2,2,2.3,2,3.2,3
2012/8/20 23:23,2.1,2,2.2,2,2.5,2
2012/8/20 23:24,2.2,2,2.2,2,3.5,2
2012/8/20 23:25,2.2,2,2.2,2,3.6,2
2012/8/20 23:26,2.4,2,2.4,2,4.8,2
2012/8/20 23:27,2.3,2,2.4,2,4.3,2
2012/8/20 23:28,2.3,2,2.3,2,3.8,1
2012/8/20 23:29,2.2,2,2.2,2,2.9,1
2012/8/20 23:30,2.3,2,2.3,2,3.7,3
2012/8/20 23:31,2.3,2,2.3,2,3.8,3
2012/8/20 23:32,2.3,2,2.3,2,3,3
2012/8/20 23:33,2.4,2,2.4,2,2.9,3
2012/8/20 23:34,2.4,2,2.4,2,3.5,3
2012/8/20 23:35,2.5,2,2.5,2,4.9,3
2012/8/20 23:36,2.4,2,2.5,2,4.3,2
2012/8/20 23:37,2.4,2,2.4,2,4.1,2
2012/8/20 23:38,2.4,3,2.4,2,4.2,3
2012/8/20 23:39,2.5,3,2.5,2,2.6,2
2012/8/20 23:40,2.4,2,2.5,2,3.1,3
2012/8/20 23:41,2.4,2,2.4,2,4.5,3
2012/8/20 23:42,2.4,2,2.4,2,3.8,3
2012/8/20 23:43,2.3,2,2.4,2,2.7,16
2012/8/20 23:44,2.2,3,2.3,2,3,3
2012/8/20 23:45,2.2,3,2.3,2,3.5,3
2012/8/20 23:46,2.1,2,2.2,2,2.5,2
2012/8/20 23:47,2,2,2.1,2,3.5,2
2012/8/20 23:48,2,2,2,2,3.7,3
2012/8/20 23:49,2.1,2,2.1,3,3.8,3
2012/8/20 23:50,2.2,2,2.2,2,3.9,3
2012/8/20 23:51,2.2,3,2.3,2,3.7,3
2012/8/20 23:52,2.2,3,2.2,2,2.9,2
2012/8/20 23:53,2.3,3,2.3,2,3.3,1
2012/8/20 23:54,2.3,2,2.4,3,3.5,3
2012/8/20 23:55,2.3,2,2.3,3,3,2
2012/8/20 23:56,2.3,2,2.3,3,3.7,2
2012/8/20 23:57,2.4,2,2.4,3,3.5,2
2012/8/20 23:58,2.4,2,2.4,3,3.5,2
2012/8/20 23:59,2.3,2,2.4,3,3.2,3
2012/8/21 0:00,2.2,2,2.3,3,3.5,2
